#timestamp,LO_Frequency,Hit,Temp,Hum 
1479898815.9,286047076.1,N,0.0,0.0
1479898835.7,286047076.4,N,0.0,0.0
1479898855.5,286047074.1,N,0.0,0.0
1479898875.4,286047072.6,N,0.0,0.0
1479898895.2,286047072.5,N,0.0,0.0
1479898915.0,286047072.8,N,0.0,0.0
1479898915.9,286047072.8,N,0.0,0.0
1479898935.8,286047070.9,N,0.0,0.0
1479898955.6,286047068.5,N,0.0,0.0
1479898975.5,286047069.4,N,0.0,0.0
1479898995.3,286047069.9,N,0.0,0.0
1479899015.1,286047069.2,N,0.0,0.0
1479899035.9,286047066.9,N,0.0,0.0
1479899055.7,286047067.8,N,0.0,0.0
1479899075.5,286047068.2,N,0.0,0.0
1479899095.4,286047067.8,N,0.0,0.0
1479899115.2,286047068.1,N,0.0,0.0
1479899135.1,286047068.1,N,0.0,0.0
1479899136.0,286047068.1,N,0.0,0.0
1479899155.8,286047067.8,N,0.0,0.0
1479899175.6,286047068.2,N,0.0,0.0
1479899195.5,286047065.5,N,0.0,0.0
1479899215.3,286047065.9,N,0.0,0.0
1479899235.2,286047066.5,N,0.0,0.0
1479899255.9,286047066.8,N,0.0,0.0
1479899275.7,286047064.5,N,0.0,0.0
1479899295.6,286047064.9,N,0.0,0.0
1479899315.4,286047064.6,N,0.0,0.0
1479899335.2,286047062.3,N,0.0,0.0
1479899355.1,286047063.3,N,0.0,0.0
1479899356.0,286047063.3,N,0.0,0.0
1479899375.8,286047060.6,N,0.0,0.0
1479899395.7,286047061.2,N,0.0,0.0
1479899415.5,286047059.3,N,0.0,0.0
1479899435.3,286047061.9,N,0.0,0.0
1479899455.2,286047063.5,N,0.0,0.0
1479899475.0,286047062.8,N,0.0,0.0
1479899475.9,286047062.8,N,0.0,0.0
1479899495.8,286047063.5,N,0.0,0.0
1479899515.6,286047061.0,N,0.0,0.0
1479899535.4,286047061.4,N,0.0,0.0
1479899555.3,286047061.9,N,0.0,0.0
1479899575.1,286047061.9,N,0.0,0.0
1479899595.8,286047061.9,N,0.0,0.0
1479899615.7,286047061.6,N,0.0,0.0
1479899635.5,286047059.0,N,0.0,0.0
1479899655.4,286047061.6,N,0.0,0.0
1479899675.2,286047059.6,N,0.0,0.0
1479899695.0,286047059.4,N,0.0,0.0
1479899695.9,286047059.4,N,0.0,0.0
1479899715.8,286047059.8,N,0.0,0.0
1479899735.6,286047060.2,N,0.0,0.0
1479899755.5,286047060.4,N,0.0,0.0
1479899775.3,286047057.5,N,0.0,0.0
1479899795.1,286047058.4,N,0.0,0.0
1479899815.9,286047058.7,N,0.0,0.0
1479899835.7,286047055.9,N,0.0,0.0
1479899855.5,286047056.4,N,0.0,0.0
1479899875.4,286047056.7,N,0.0,0.0
1479899895.2,286047056.6,N,0.0,0.0
1479899915.1,286047056.8,N,0.0,0.0
1479899916.0,286047056.8,N,0.0,0.0
1479899935.8,286047056.3,N,0.0,0.0
1479899955.6,286047056.5,N,0.0,0.0
1479899975.5,286047056.6,N,0.0,0.0
1479899995.3,286047054.6,N,0.0,0.0
1479900015.1,286047055.5,N,0.0,0.0
1479900035.9,286047055.5,N,0.0,0.0
1479900055.7,286047055.1,N,0.0,0.0
1479900075.6,286047052.7,N,0.0,0.0
1479900095.4,286047053.8,N,0.0,0.0
1479900115.2,286047050.9,N,0.0,0.0
1479900135.1,286047053.8,N,0.0,0.0
1479900136.0,286047053.8,N,0.0,0.0
1479900155.8,286047053.4,N,0.0,0.0
1479900175.7,286047052.7,N,0.0,0.0
1479900195.5,286047053.2,N,0.0,0.0
1479900215.3,286047054.0,N,0.0,0.0
1479900235.2,286047052.1,N,0.0,0.0
1479900255.0,286047052.0,N,0.0,0.0
1479900255.9,286047052.0,N,0.0,0.0
1479900275.7,286047049.9,N,0.0,0.0
1479900295.6,286047050.0,N,0.0,0.0
1479900315.4,286047049.6,N,0.0,0.0
1479900335.3,286047050.6,N,0.0,0.0
1479900355.1,286047050.5,N,0.0,0.0
1479900356.0,286047050.5,N,0.0,0.0
1479900375.8,286047050.6,N,0.0,0.0
1479900395.7,286047050.2,N,0.0,0.0
1479900415.5,286047048.1,N,0.0,0.0
1479900435.4,286047048.4,N,0.0,0.0
1479900455.2,286047049.2,N,0.0,0.0
1479900475.0,286047049.2,N,0.0,0.0
1479900475.9,286047049.2,N,0.0,0.0
1479900495.8,286047047.0,N,0.0,0.0
1479900515.6,286047047.1,N,0.0,0.0
1479900535.4,286047046.8,N,0.0,0.0
1479900555.3,286047047.1,N,0.0,0.0
1479900575.1,286047047.4,N,0.0,0.0
1479900595.9,286047047.6,N,0.0,0.0
1479900615.7,286047047.5,N,0.0,0.0
1479900635.5,286047045.0,N,0.0,0.0
1479900655.4,286047045.3,N,0.0,0.0
1479900675.2,286047045.8,N,0.0,0.0
1479900695.1,286047045.3,N,0.0,0.0
1479900696.0,286047045.3,N,0.0,0.0
1479900715.8,286047045.2,N,0.0,0.0
1479900735.6,286047045.6,N,0.0,0.0
1479900755.5,286047043.4,N,0.0,0.0
1479900775.3,286047044.2,N,0.0,0.0
1479900795.1,286047044.0,N,0.0,0.0
1479900815.9,286047044.4,N,0.0,0.0
1479900835.7,286047041.8,N,0.0,0.0
1479900855.6,286047042.2,N,0.0,0.0
1479900875.4,286047042.6,N,0.0,0.0
1479900895.2,286047042.0,N,0.0,0.0
1479900915.1,286047042.3,N,0.0,0.0
1479900916.0,286047042.3,N,0.0,0.0
1479900935.8,286047040.1,N,0.0,0.0
1479900955.7,286047040.3,N,0.0,0.0
1479900975.5,286047041.1,N,0.0,0.0
1479900995.3,286047041.0,N,0.0,0.0
1479901015.2,286047040.0,N,0.0,0.0
1479901035.0,286047040.4,N,0.0,0.0
1479901035.9,286047040.4,N,0.0,0.0
1479901055.8,286047040.4,N,0.0,0.0
1479901075.6,286047038.1,N,0.0,0.0
1479901095.4,286047039.0,N,0.0,0.0
1479901115.3,286047039.5,N,0.0,0.0
1479901135.1,286047039.3,N,0.0,0.0
1479901155.8,286047039.6,N,0.0,0.0
1479901175.7,286047039.1,N,0.0,0.0
1479901195.5,286047039.5,N,0.0,0.0
1479901215.4,286047036.6,N,0.0,0.0
1479901235.2,286047036.7,N,0.0,0.0
1479901255.0,286047037.6,N,0.0,0.0
1479901255.9,286047037.6,N,0.0,0.0
1479901275.8,286047035.1,N,0.0,0.0
1479901295.6,286047035.8,N,0.0,0.0
1479901315.5,286047035.6,N,0.0,0.0
1479901335.3,286047035.0,N,0.0,0.0
1479901355.1,286047037.9,N,0.0,0.0
1479901375.9,286047037.8,N,0.0,0.0
1479901395.7,286047037.1,N,0.0,0.0
1479901415.5,286047037.3,N,0.0,0.0
1479901435.4,286047037.3,N,0.0,0.0
1479901455.2,286047037.1,N,0.0,0.0
1479901475.1,286047037.1,N,0.0,0.0
1479901476.0,286047037.1,N,0.0,0.0
1479901495.8,286047037.2,N,0.0,0.0
1479901515.6,286047037.3,N,0.0,0.0
1479901535.5,286047037.0,N,0.0,0.0
1479901555.3,286047036.8,N,0.0,0.0
1479901575.2,286047039.6,N,0.0,0.0
1479901595.9,286047039.1,N,0.0,0.0
1479901615.7,286047038.6,N,0.0,0.0
1479901635.6,286047038.6,N,0.0,0.0
1479901655.4,286047038.2,N,0.0,0.0
1479901675.2,286047041.2,N,0.0,0.0
1479901695.1,286047040.6,N,0.0,0.0
1479901696.0,286047040.6,N,0.0,0.0
1479901715.8,286047040.1,N,0.0,0.0
1479901735.7,286047040.6,N,0.0,0.0
1479901755.5,286047040.1,N,0.0,0.0
1479901775.3,286047042.0,N,0.0,0.0
1479901795.2,286047042.2,N,0.0,0.0
1479901815.0,286047041.9,N,0.0,0.0
1479901815.9,286047041.9,N,0.0,0.0
1479901835.8,286047044.0,N,0.0,0.0
1479901855.6,286047043.7,N,0.0,0.0
1479901875.4,286047043.4,N,0.0,0.0
1479901895.3,286047043.0,N,0.0,0.0
1479901915.1,286047043.3,N,0.0,0.0
1479901935.9,286047045.9,N,0.0,0.0
1479901955.7,286047043.3,N,0.0,0.0
1479901975.5,286047043.7,N,0.0,0.0
1479901995.4,286047043.1,N,0.0,0.0
1479902015.2,286047045.4,N,0.0,0.0
1479902035.0,286047045.4,N,0.0,0.0
1479902036.0,286047045.4,N,0.0,0.0
1479902055.8,286047045.8,N,0.0,0.0
1479902075.6,286047045.2,N,0.0,0.0
1479902095.5,286047045.2,N,0.0,0.0
1479902115.3,286047045.2,N,0.0,0.0
1479902135.1,286047047.0,N,0.0,0.0
1479902155.9,286047046.5,N,0.0,0.0
1479902175.7,286047046.8,N,0.0,0.0
1479902195.6,286047049.2,N,0.0,0.0
1479902215.4,286047046.5,N,0.0,0.0
1479902235.2,286047046.3,N,0.0,0.0
1479902255.1,286047046.4,N,0.0,0.0
1479902256.0,286047046.4,N,0.0,0.0
1479902275.8,286047046.3,N,0.0,0.0
1479902295.6,286047046.2,N,0.0,0.0
1479902315.5,286047046.1,N,0.0,0.0
1479902335.3,286047046.3,N,0.0,0.0
1479902355.2,286047046.2,N,0.0,0.0
1479902375.9,286047046.1,N,0.0,0.0
1479902395.7,286047048.9,N,0.0,0.0
